Location: Gleizolles
(44.4833°N, 6.7667°E)
Time: 03:23:46
(UTC+00:00)

Vanguard 1 Rocket - Pass Details

Date: 29 June 2024
Orbit: 650 x 4219 km, 34.3° (Epoch: 15 July)

Event Time Altitude Azimuth Distance (km) Brightness Sun altitude
Rises 22:32:35 0° 216° (SW) 4,151 - -20.8°
Reaches altitude 10° 22:35:11 10° 207° (SSW) 3,514 - -20.9°
Exits shadow 22:39:56 29° 177° (S) 2,876 9.3 -21.1°
Maximum altitude 22:43:31 35° 145° (SE) 3,005 9.5 -21.3°
Drops below altitude 10° 22:58:06 10° 88° (E) 6,164 11.5 -21.8°
Sets 23:04:33 0° 82° (E) 7,707 12.1 -22.0°
